Weather History for Gulf Shores, AL

Change the Weather History Date:

Sunday, January 6, 2013

  Actual Average (KPNS) Record (KPNS)
Temperature  
Mean Temperature 50 °F 51 °F  
Max Temperature 53 °F 60 °F 78 °F (2005)
Min Temperature 46 °F 42 °F 14 °F (1924)
Degree Days  
Heating Degree Days 16 14  
Month to date heating degree days 84  
Since 1 July heating degree days 666  
Cooling Degree Days 0 0  
Month to date cooling degree days 0  
Year to date cooling degree days 0  
Moisture  
Dew Point 39 °F    
Average Humidity 67    
Maximum Humidity 82    
Minimum Humidity 51    
Precipitation  
Precipitation 0.00 in 0.14 in 4.38 in (1945)
Month to date precipitation 0.81  
Year to date precipitation 0.81  
Snow  
Snow 0.00 in 0.00 in 0.00 in (2002)
Month to date snowfall 0.0  
Since 1 July snowfall 0.0  
Snow Depth -    
Sea Level Pressure  
Sea Level Pressure 30.23 in    
Wind  
Wind Speed 5 mph (NNE)    
Max Wind Speed 12 mph    
Max Gust Speed 20 mph    
Visibility 10 miles    
Events Rain    
T = Trace of Precipitation, MM = Missing Value Source: NWS Daily Summary

Daily Weather History Graph

Daily Weather History Graph

Search for Another Location

Airport:

Trip Planner

Search our weather history database for the weather conditions in past years. The results will help you decide how hot, cold, wet, or windy it might be!

Date:

Astronomy

Jan. 06, 2013 Rise Set
Actual Time 6:48 AM CST 5:05 PM CST
Civil Twilight 6:21 AM CST 5:31 PM CST
Nautical Twilight 5:52 AM CST 6:01 PM CST
Astronomical Twilight 5:23 AM CST 6:30 PM CST
Moon 1:11 AM CST (1/6) 12:24 PM CST (1/6)
Length of Visible Light 11h 09m
Length of Day
10h 17m
Waning Crescent, 33% of the Moon is Illuminated
Jan 6
Waning Crescent
Jan 11
New
Jan 18
First Quarter
Jan 26
Full
Feb 3
Last Quarter

Hourly Weather History & Observations

Time (CST) Temp. Windchill Dew Point Humidity Pressure Visibility Wind Dir Wind Speed Gust Speed Precip Events Conditions
12:15 AM 50.0 °F - 35.6 °F 58% 30.24 in 10.0 mi North 3.5 mph - N/A   Overcast
12:35 AM 50.0 °F - 35.6 °F 58% 30.23 in 10.0 mi Calm Calm - N/A   Overcast
12:55 AM 50.0 °F - 35.6 °F 58% 30.23 in 10.0 mi NE 3.5 mph - N/A   Overcast
1:15 AM 50.0 °F - 35.6 °F 58% 30.23 in 10.0 mi NNE 3.5 mph - N/A   Overcast
1:35 AM 50.0 °F - 35.6 °F 58% 30.24 in 10.0 mi NNE 3.5 mph - N/A   Overcast
1:55 AM 50.0 °F - 37.4 °F 62% 30.23 in 10.0 mi NE 3.5 mph - N/A   Overcast
2:15 AM 50.0 °F - 37.4 °F 62% 30.23 in 10.0 mi Calm Calm - N/A   Overcast
2:35 AM 50.0 °F - 35.6 °F 58% 30.23 in 10.0 mi Calm Calm - N/A   Overcast
2:55 AM 50.0 °F - 37.4 °F 62% 30.22 in 10.0 mi NE 4.6 mph - N/A Rain Light Rain
3:15 AM 50.0 °F - 37.4 °F 62% 30.20 in 10.0 mi NE 4.6 mph - N/A   Overcast
3:35 AM 50.0 °F - 37.4 °F 62% 30.20 in 10.0 mi Calm Calm - N/A   Overcast
3:55 AM 50.0 °F - 37.4 °F 62% 30.19 in 10.0 mi NNE 4.6 mph - N/A   Overcast
4:15 AM 50.0 °F - 37.4 °F 62% 30.18 in 10.0 mi North 3.5 mph - N/A   Overcast
4:35 AM 50.0 °F - 37.4 °F 62% 30.20 in 10.0 mi NNE 3.5 mph - N/A   Overcast
4:55 AM 50.0 °F - 37.4 °F 62% 30.20 in 10.0 mi North 4.6 mph - N/A   Overcast
5:15 AM 50.0 °F - 37.4 °F 62% 30.19 in 10.0 mi NNE 4.6 mph - N/A   Overcast
5:35 AM 50.0 °F - 37.4 °F 62% 30.20 in 10.0 mi North 4.6 mph - N/A   Overcast
5:55 AM 50.0 °F - 37.4 °F 62% 30.20 in 10.0 mi NNE 6.9 mph - N/A   Overcast
6:35 AM 50.0 °F - 37.4 °F 62% 30.22 in 10.0 mi NNE 6.9 mph - N/A   Overcast
6:55 AM 50.0 °F - 37.4 °F 62% 30.23 in 10.0 mi NNE 5.8 mph - N/A   Overcast
7:15 AM 50.0 °F - 35.6 °F 58% 30.22 in 10.0 mi NNE 6.9 mph - N/A   Overcast
7:35 AM 50.0 °F - 35.6 °F 58% 30.22 in 10.0 mi NNE 4.6 mph - N/A   Overcast
7:55 AM 51.8 °F - 35.6 °F 54% 30.23 in 10.0 mi NNE 6.9 mph - N/A   Overcast
8:15 AM 51.8 °F - 35.6 °F 54% 30.24 in 10.0 mi North 5.8 mph - N/A   Overcast
8:35 AM 51.8 °F - 35.6 °F 54% 30.25 in 10.0 mi North 8.1 mph - N/A   Mostly Cloudy
8:55 AM 51.8 °F - 35.6 °F 54% 30.25 in 10.0 mi North 8.1 mph - N/A   Overcast
9:15 AM 51.8 °F - 35.6 °F 54% 30.25 in 10.0 mi NNE 4.6 mph - N/A   Overcast
9:35 AM 51.8 °F - 35.6 °F 54% 30.25 in 10.0 mi NE 8.1 mph - N/A   Overcast
9:55 AM 51.8 °F - 35.6 °F 54% 30.25 in 10.0 mi NE 5.8 mph - N/A   Overcast
10:15 AM 51.8 °F - 35.6 °F 54% 30.26 in 10.0 mi NNW 10.4 mph - N/A   Overcast
10:35 AM 51.8 °F - 35.6 °F 54% 30.26 in 10.0 mi North 6.9 mph - N/A   Overcast
10:55 AM 51.8 °F - 37.4 °F 58% 30.25 in 10.0 mi North 8.1 mph - N/A   Light Drizzle
11:15 AM 51.8 °F - 37.4 °F 58% 30.23 in 10.0 mi NNE 6.9 mph - N/A   Mostly Cloudy
11:35 AM 53.6 °F - 35.6 °F 51% 30.21 in 10.0 mi NNE 9.2 mph - N/A   Mostly Cloudy
11:55 AM 51.8 °F - 37.4 °F 58% 30.21 in 10.0 mi North 8.1 mph - N/A   Overcast
12:15 PM 51.8 °F - 37.4 °F 58% 30.20 in 10.0 mi North 8.1 mph 17.3 mph N/A   Overcast
12:35 PM 51.8 °F - 37.4 °F 58% 30.20 in 10.0 mi North 6.9 mph 16.1 mph N/A   Overcast
12:55 PM 51.8 °F - 37.4 °F 58% 30.20 in 10.0 mi North 11.5 mph 16.1 mph N/A   Overcast
1:15 PM 51.8 °F - 41.0 °F 67% 30.20 in 10.0 mi North 9.2 mph - N/A   Overcast
1:35 PM 51.8 °F - 41.0 °F 67% 30.20 in 10.0 mi North 11.5 mph 16.1 mph N/A   Overcast
1:55 PM 50.0 °F - 41.0 °F 71% 30.19 in 10.0 mi North 11.5 mph 19.6 mph N/A   Overcast
2:15 PM 50.0 °F - 42.8 °F 76% 30.19 in 10.0 mi North 11.5 mph - N/A Rain Rain
2:35 PM 50.0 °F - 44.6 °F 82% 30.20 in 10.0 mi North 5.8 mph - N/A Rain Light Rain
2:55 PM 50.0 °F - 42.8 °F 76% 30.20 in 10.0 mi NNE 8.1 mph - N/A   Mostly Cloudy
3:15 PM 50.0 °F - 42.8 °F 76% 30.20 in 10.0 mi NNE 5.8 mph - N/A   Overcast
3:35 PM 50.0 °F - 44.6 °F 82% 30.19 in 10.0 mi North 6.9 mph - N/A   Overcast
3:55 PM 50.0 °F - 42.8 °F 76% 30.20 in 10.0 mi North 6.9 mph - N/A   Mostly Cloudy
4:15 PM 50.0 °F - 42.8 °F 76% 30.20 in 10.0 mi NNE 4.6 mph - N/A   Overcast
4:35 PM 50.0 °F - 42.8 °F 76% 30.20 in 10.0 mi North 4.6 mph - N/A   Overcast
4:55 PM 50.0 °F - 44.6 °F 82% 30.21 in 10.0 mi North 6.9 mph - N/A   Overcast
5:15 PM 50.0 °F - 44.6 °F 82% 30.21 in 10.0 mi North 4.6 mph - N/A   Overcast
5:35 PM 50.0 °F - 44.6 °F 82% 30.22 in 10.0 mi North 3.5 mph - N/A   Overcast
5:55 PM 50.0 °F - 44.6 °F 82% 30.22 in 10.0 mi North 3.5 mph - N/A   Overcast
6:15 PM 50.0 °F - 44.6 °F 82% 30.22 in 10.0 mi Calm Calm - N/A   Overcast
6:35 PM 50.0 °F - 44.6 °F 82% 30.24 in 10.0 mi Calm Calm - N/A   Mostly Cloudy
6:55 PM 50.0 °F - 44.6 °F 82% 30.25 in 10.0 mi Calm Calm - N/A   Mostly Cloudy
7:15 PM 50.0 °F - 44.6 °F 82% 30.25 in 10.0 mi NNW 3.5 mph - N/A   Overcast
7:35 PM 50.0 °F - 44.6 °F 82% 30.26 in 10.0 mi NNW 3.5 mph - N/A   Scattered Clouds
7:55 PM 50.0 °F - 44.6 °F 82% 30.27 in 10.0 mi Calm Calm - N/A   Scattered Clouds
8:15 PM 50.0 °F - 44.6 °F 82% 30.27 in 10.0 mi North 4.6 mph - N/A   Overcast
8:35 PM 50.0 °F - 42.8 °F 76% 30.27 in 10.0 mi North 4.6 mph - N/A   Overcast
8:55 PM 50.0 °F - 42.8 °F 76% 30.28 in 10.0 mi NNW 3.5 mph - N/A   Mostly Cloudy
9:15 PM 50.0 °F - 42.8 °F 76% 30.27 in 10.0 mi North 3.5 mph - N/A   Overcast
9:55 PM 50.0 °F - 41.0 °F 71% 30.27 in 10.0 mi North 3.5 mph - N/A   Overcast
10:15 PM 48.2 °F - 41.0 °F 76% 30.28 in 10.0 mi North 4.6 mph - N/A   Overcast
10:35 PM 48.2 °F - 41.0 °F 76% 30.27 in 10.0 mi North 3.5 mph - N/A   Scattered Clouds
10:55 PM 46.4 °F 42.9 °F 41.0 °F 81% 30.28 in 10.0 mi North 6.9 mph - N/A   Clear
11:35 PM 46.4 °F 44.3 °F 39.2 °F 76% 30.28 in 10.0 mi North 4.6 mph - N/A   Clear
11:55 PM 46.4 °F 45.2 °F 39.2 °F 76% 30.28 in 10.0 mi NNE 3.5 mph - N/A   Clear